{"data":{"norad_id":58244,"epoch":"2026-09-20T20:53:33.184608Z","epoch_age_seconds":111584,"freshness":"FRESH","line1":"1 58244U 23171Q   26263.87052297  .00001024  00000+0  46754-4 0  9992","line2":"2 58244  43.0028 263.0586 0001432 259.1652 100.9038 15.27576034159581","mean_motion":15.27576034,"eccentricity":0.0001432,"inclination_deg":43.0028,"raan_deg":263.0586,"arg_perigee_deg":259.1652,"mean_anomaly_deg":100.9038,"bstar":4.6754e-5,"rev_number":15958,"period_min":94.266993455594,"perigee_km":482.07844814656,"apogee_km":484.04349524565,"semimajor_km":6861.1979716961,"source":"CELESTRAK","updated_at":"2026-09-21T09:00:33.838799Z"}}